Weather History for Ellensburg, WA

Change the Weather History Date:

Monday, May 14, 2012

  Actual Average (KYKM) Record (KYKM)
Temperature  
Mean Temperature 68 °F 57 °F  
Max Temperature 91 °F 72 °F 95 °F (1973)
Min Temperature 46 °F 42 °F 26 °F (1964)
Degree Days  
Heating Degree Days 0 9  
Month to date heating degree days 148  
Since 1 July heating degree days 5830  
Cooling Degree Days 3 1  
Month to date cooling degree days 3  
Year to date cooling degree days 4  
Growing Degree Days 18 (Base 50)    
Moisture  
Dew Point 40 °F    
Average Humidity 41    
Maximum Humidity 71    
Minimum Humidity 12    
Precipitation  
Precipitation 0.00 in 0.02 in 1.06 in (2011)
Month to date precipitation 0.25  
Year to date precipitation 3.34  
Snow  
Snow 0.00 in 0.00 in 0.00 in (2002)
Month to date snowfall 0.0  
Year to date snowfall 8.6  
Since 1 July snowfall 21.6  
Snow Depth -    
Sea Level Pressure  
Sea Level Pressure 30.02 in    
Wind  
Wind Speed 3 mph (NNE)    
Max Wind Speed 16 mph    
Max Gust Speed -    
Visibility 10 miles    
Events      
T = Trace of Precipitation, MM = Missing Value Source: NWS Daily Summary

Daily Weather History Graph

Daily Weather History Graph

Search for Another Location

Airport:

Trip Planner

Search our weather history database for the weather conditions in past years. The results will help you decide how hot, cold, wet, or windy it might be!

Date:

Astronomy

May. 14, 2012 Rise Set
Actual Time 5:27 AM PDT 8:30 PM PDT
Civil Twilight 4:51 AM PDT 9:06 PM PDT
Nautical Twilight 4:04 AM PDT 9:53 PM PDT
Astronomical Twilight 3:08 AM PDT 10:50 PM PDT
Moon 2:26 AM PDT (5/14) 2:35 PM PDT (5/14)
Length of Visible Light 16h 15m
Length of Day
15h 03m
Waning Crescent, 31% of the Moon is Illuminated
May 14
Waning Crescent
May 20
New
May 28
First Quarter
Jun 4
Full
Jun 11
Last Quarter

Hourly Weather History & Observations

Time (PDT) Temp. Windchill Dew Point Humidity Pressure Visibility Wind Dir Wind Speed Gust Speed Precip Events Conditions
12:53 AM 59.0 °F - 37.9 °F 46% 30.07 in 10.0 mi Calm Calm - N/A   Clear
1:53 AM 50.0 °F - 37.9 °F 63% 30.08 in 10.0 mi ENE 4.6 mph - N/A   Clear
2:53 AM 50.0 °F - 37.9 °F 63% 30.08 in 10.0 mi Calm Calm - N/A   Clear
3:53 AM 48.9 °F - 37.9 °F 66% 30.08 in 10.0 mi Calm Calm - N/A   Clear
4:53 AM 46.9 °F - 37.9 °F 71% 30.08 in 10.0 mi ENE 3.5 mph - N/A   Clear
5:53 AM 46.0 °F 43.9 °F 37.0 °F 71% 30.09 in 10.0 mi NNE 4.6 mph - N/A   Clear
6:53 AM 51.1 °F - 39.9 °F 66% 30.10 in 10.0 mi ESE 5.8 mph - N/A   Clear
7:53 AM 55.9 °F - 42.1 °F 60% 30.10 in 10.0 mi Calm Calm - N/A   Clear
8:53 AM 61.0 °F - 43.0 °F 52% 30.10 in 10.0 mi Calm Calm - N/A   Clear
9:53 AM 66.9 °F - 44.1 °F 44% 30.08 in 10.0 mi Calm Calm - N/A   Clear
10:53 AM 73.9 °F - 45.0 °F 35% 30.06 in 10.0 mi Calm Calm - N/A   Clear
11:53 AM 78.1 °F - 44.1 °F 30% 30.04 in 10.0 mi Calm Calm - N/A   Clear
12:53 PM 84.0 °F - 43.0 °F 24% 30.01 in 10.0 mi Variable 3.5 mph - N/A   Clear
1:53 PM 86.0 °F - 30.9 °F 14% 30.00 in 10.0 mi SSW 4.6 mph - N/A   Clear
2:53 PM 88.0 °F - 36.0 °F 16% 29.97 in 10.0 mi Variable 3.5 mph - N/A   Clear
3:53 PM 89.1 °F - 36.0 °F 15% 29.96 in 10.0 mi Calm Calm - N/A   Clear
4:53 PM 90.0 °F - 30.0 °F 12% 29.94 in 10.0 mi Calm Calm - N/A   Clear
5:53 PM 90.0 °F - 32.0 °F 13% 29.93 in 10.0 mi Calm Calm - N/A   Clear
6:53 PM 88.0 °F - 35.1 °F 15% 29.91 in 10.0 mi Calm Calm - N/A   Clear
7:53 PM 79.0 °F - 53.1 °F 40% 29.92 in 10.0 mi NE 5.8 mph - N/A   Clear
8:53 PM 69.1 °F - 44.1 °F 40% 29.94 in 10.0 mi North 10.4 mph - N/A   Clear
9:53 PM 70.0 °F - 46.9 °F 44% 29.95 in 10.0 mi NNW 11.5 mph - N/A   Clear
10:53 PM 70.0 °F - 46.9 °F 44% 29.95 in 10.0 mi NNW 16.1 mph - N/A   Clear
11:53 PM 66.9 °F - 46.0 °F 47% 29.95 in 10.0 mi WNW 9.2 mph - N/A   Clear